Dewpoint
71 70 70 71 72 73 72 72 73 72 72 71 72 71 69 68 66 64 63 63 63 61 61 62 61 62 61 59 57 59 57 60 58 60 63 63 61 59 64 63 66 69 68
70 70 70 70 71 71 72 72 72 72 72 71 72 71 71 68 67 64 63 62 63 61 61 61 62 62 60 62 61 59 56 58 56 54 58 59 58 63 61 61 62 61 63
69 69 69 69 70 70 70 72 72 72 73 72 71 70 70 70 69 66 64 63 64 61 62 62 63 63 61 62 60 57 59 58 60 58 55 55 53 58 58 60 62 63 62
67 70 68 69 69 70 70 72 72 72 73 72 71 70 69 62 66 69 66 65 65 65 64 66 63 63 62 62 60 61 59 59 58 56 57 55 55 56 58 57 56 59 61
71 72 71 70 70 70 70 69 70 70 69 68 68 66 64 68 69 70 67 66 65 65 64 65 64 63 64 60 58 60 61 60 55 53 54 55 57 58 59 60 59 60 59
69 69 69 68 68 68 68 68 68 69 69 68 66 64 64 67 71 69 68 66 65 65 63 64 63 61 59 57 53 52 58 55 52 54 55 54 56 57 57 58 57 59 57
68 68 68 67 67 67 67 67 66 67 68 68 68 68 68 68 68 67 67 67 66 64 63 64 61 60 58 54 54 54 53 50 50 50 46 49 54 52 56 57 58 57 56
67 66 66 66 66 65 65 65 65 65 65 65 66 67 67 67 67 66 67 66 65 65 64 64 64 61 59 56 56 56 56 57 52 52 53 53 55 52 47 52 55 53 52
65 66 66 66 65 63 62 63 64 66 65 65 65 65 65 66 65 66 65 65 65 63 65 65 64 60 59 62 61 60 58 57 59 55 56 55 49 49 48 43 37 36 38
65 66 67 65 62 61 61 62 62 63 62 62 60 60 61 60 61 62 62 59 58 56 55 53 53 52 52 50 50 52 53 52 53 54 51 52 53 52 53 48 46 43 44
66 66 65 65 62 62 62 62 61 60 60 59 60 60 60 59 59 60 61 60 58 57 56 55 55 55 55 53 52 52 53 55 52 50 50 51 53 54 57 55 52 49 49
65 63 63 62 62 64 63 62 60 59 58 58 58 58 59 58 58 58 59 59 58 57 56 57 57 56 56 55 54 53 53 53 52 50 51 55 53 54 56 58 57 55 55
64 61 60 61 58 58 56 56 56 59 58 57 57 58 58 59 57 56 57 57 58 57 57 55 55 55 55 55 55 55 53 53 52 51 52 55 57 58 57 59 58 58 59
62 60 58 57 55 55 55 56 54 55 56 56 56 55 55 56 57 58 58 57 57 57 57 56 56 57 58 58 57 57 56 56 54 54 55 56 58 57 57 59 57 57 55
62 62 60 60 56 54 52 53 55 53 55 58 57 53 56 55 55 53 54 57 57 57 56 59 58 58 58 57 58 58 57 56 57 58 57 56 55 55 54 56 56 56 54
58 59 59 62 60 56 55 54 51 49 48 50 51 53 52 51 51 51 52 53 54 55 56 56 56 56 56 55 54 54 55 57 57 56 56 55 54 54 54 53 54 54 53
59 60 59 59 60 59 57 55 54 53 51 47 46 47 50 51 52 52 51 51 54 56 54 55 55 54 54 53 53 53 53 54 55 55 54 53 53 53 51 49 49 50 50
60 58 60 61 60 59 59 59 57 55 47 43 46 45 45 44 43 43 43 47 47 53 50 50 48 49 51 51 51 51 51 51 50 50 49 47 47 50 45 41 39 40 44
56 54 58 56 55 57 57 58 58 57 54 48 46 44 46 43 43 41 41 44 42 41 40 43 42 42 45 43 44 43 43 43 44 44 43 44 45 43 42 42 41 40 40
53 52 54 53 51 46 45 39 41 46 53 48 38 35 36 40 40 45 45 43 42 42 41 41 40 40 41 41 44 43 43 42 43 42 41 40 40 41 40 40 40 39 39
49 46 44 35 33 33 38 35 36 35 42 39 33 33 32 34 38 37 35 35 39 37 39 41 40 40 42 42 42 42 40 42 41 40 40 40 42 41 41 40 40 39 39
42 35 35 35 34 33 36 34 34 34 36 39 36 35 33 34 38 36 38 39 41 41 42 43 43 43 43 44 44 42 40 40 40 41 42 41 40 39 39 39 39 38 38
38 35 38 37 36 36 38 34 33 33 34 35 36 35 37 39 38 40 42 43 44 44 43 43 41 41 42 43 44 43 40 40 42 42 41 43 43 42 41 41 40 39 39
36 35 33 33 34 35 34 37 34 34 35 37 36 37 38 38 40 41 43 43 43 43 43 42 41 41 41 40 38 36 35 36 36 36 37 37 37 39 40 41 42 41 41
35 36 36 36 37 38 37 38 37 37 37 37 38 39 40 40 41 42 43 43 42 42 41 41 41 38 37 37 37 37 38 38 38 37 37 37 37 37 37 38 38 39 40
38 38 39 39 39 40 38 36 37 39 39 41 41 40 39 39 42 43 43 43 43 42 42 41 40 39 39 40 40 38 36 35 35 34 34 36 38 39 38 38 37 36 36
Wind_Speed
17 17 18 18 18 18 18 18 16 17 17 18 15 14 13 13 11 9 7 6 5 5 4 4 4 2 1 4 4 7 6 4 2 1 2 1 2 2 3 5 4 12 12
22 22 23 23 21 20 21 22 19 21 18 17 13 12 10 14 14 14 12 11 13 11 9 6 7 4 2 3 5 5 3 2 2 2 2 2 3 5 6 3 5 7 9
22 22 20 23 22 23 21 24 20 20 20 17 15 14 14 8 7 10 13 11 10 12 11 11 8 3 4 3 3 4 5 5 3 1 4 2 5 3 5 3 7 11 11
16 16 17 15 17 14 9 6 11 18 6 16 12 4 5 9 6 14 12 12 13 12 11 11 11 8 9 5 3 2 1 1 4 7 6 8 4 4 1 1 4 5 10
22 20 18 18 18 19 19 17 20 17 7 13 9 9 12 12 12 16 15 17 17 14 11 11 11 9 9 11 7 3 5 3 3 4 4 6 7 8 7 5 4 5 5
22 19 17 18 18 18 19 19 18 16 8 11 17 13 15 12 17 15 15 16 17 17 17 12 11 11 13 12 9 7 6 5 3 1 1 2 4 4 6 5 5 6 5
18 16 18 16 17 16 17 19 19 14 7 3 5 7 8 8 9 7 10 16 16 19 18 14 14 11 11 11 9 8 5 5 5 5 4 4 1 2 5 6 4 3 5
17 18 16 17 19 19 19 19 19 19 17 14 12 11 12 13 14 14 14 14 16 18 20 18 12 12 17 15 12 8 5 7 9 8 6 5 4 5 4 4 5 7 10
15 15 17 17 17 17 18 17 16 17 20 20 17 17 16 13 17 13 8 10 6 10 4 8 6 11 11 12 10 6 3 7 9 14 9 10 9 6 4 4 9 7 9
13 14 14 16 18 21 19 20 18 16 18 19 21 21 22 19 17 20 23 22 22 19 21 23 31 25 23 24 18 15 15 16 15 2 4 9 9 11 10 12 8 8 6
12 13 14 12 15 12 14 15 17 17 17 18 19 19 20 22 23 21 17 15 16 15 16 18 21 21 26 23 20 15 10 10 12 9 10 11 11 18 12 8 12 12 9
13 13 14 14 12 9 9 11 13 16 17 17 17 16 17 17 19 22 25 20 14 16 17 14 12 15 14 8 7 7 8 9 9 11 8 9 13 12 13 10 9 14 16
13 13 13 12 14 15 18 15 13 9 13 12 13 13 13 11 11 16 15 15 14 12 10 10 8 8 4 1 3 8 9 7 6 7 8 8 8 9 11 10 10 9 14
13 11 11 12 12 14 14 13 15 14 13 12 11 11 11 11 10 9 8 8 8 7 5 3 3 1 3 5 6 8 9 8 7 9 7 10 7 8 11 10 10 13 12
12 10 9 10 12 14 14 10 8 6 6 8 7 9 7 6 4 4 5 6 6 5 6 4 4 3 4 4 4 5 5 6 5 4 3 5 6 9 10 6 6 8 7
5 7 4 7 11 10 13 13 9 5 4 8 7 7 5 5 5 6 7 6 5 4 3 4 4 2 3 2 3 5 4 3 2 4 7 5 5 5 6 6 5 3 4
7 7 7 8 8 9 9 8 8 4 7 8 10 10 9 6 5 6 8 8 4 2 4 3 3 2 2 4 4 5 4 4 4 5 6 6 6 7 8 9 10 7 6
6 4 8 8 8 8 7 9 7 7 8 4 2 1 3 3 4 6 10 9 9 2 6 7 7 6 3 3 2 2 4 6 6 7 8 8 9 8 6 6 7 7 5
9 9 4 8 7 6 6 7 9 9 11 8 1 4 5 4 6 6 5 5 8 9 9 8 7 8 5 5 5 5 6 9 9 8 10 9 8 8 9 10 10 12 11
8 6 6 4 7 9 9 14 10 13 15 9 3 6 6 8 12 5 1 3 8 2 3 2 0 4 7 7 7 4 5 9 8 9 8 4 3 3 4 5 6 7 6
8 5 9 13 12 11 8 10 10 10 11 8 8 2 3 5 4 2 1 1 2 1 1 1 2 5 6 7 7 8 6 2 1 2 1 2 3 5 5 5 6 8 9
6 12 12 11 7 6 10 13 12 11 8 8 5 3 4 5 7 6 6 7 6 8 10 8 11 10 12 10 7 5 5 6 8 9 8 8 8 9 9 10 12 12 13
9 11 10 8 8 3 4 9 6 4 6 4 4 2 5 4 10 12 15 15 14 13 13 13 14 14 15 13 14 14 13 12 12 12 12 12 12 13 15 16 16 16 15
11 12 12 7 6 6 5 7 4 2 3 4 7 10 11 13 17 18 13 12 13 12 12 12 13 16 14 15 14 14 14 14 13 14 14 13 15 15 15 16 17 19 19
11 10 9 5 3 5 5 6 6 4 6 2 8 13 13 12 13 11 10 9 9 10 12 13 14 13 13 15 12 11 15 14 12 13 12 14 17 19 18 18 19 19 20
8 5 6 8 7 7 6 5 6 6 4 12 13 10 9 11 10 11 10 10 9 9 11 12 13 10 12 10 9 7 10 9 12 11 12 11 12 14 15 17 20 19 21
Wind_Direction
196 205 216 225 227 226 236 243 242 229 221 217 183 185 177 172 169 179 213 246 229 241 255 230 219 214 42 17 45 81 67 82 132 14 55 162 182 157 80 128 180 207 215
201 210 208 215 218 224 227 234 238 234 220 211 193 188 189 184 182 192 212 222 216 214 231 239 228 219 224 343 33 51 33 53 135 224 235 333 285 247 211 203 250 228 219
203 211 214 214 217 222 225 226 232 231 213 188 181 204 211 217 238 204 200 233 251 229 218 205 205 239 186 133 66 7 29 29 23 319 301 270 264 265 209 234 247 267 261
218 211 219 224 224 241 277 323 272 242 3 258 110 333 148 159 282 245 228 222 241 233 239 219 199 204 191 186 142 317 259 322 3 353 302 310 318 328 10 66 10 335 316
54 53 41 38 35 37 30 31 26 25 153 119 205 231 276 255 223 235 212 224 228 235 236 216 191 164 179 161 160 109 90 107 50 22 32 27 23 25 31 3 24 339 11
57 52 49 49 46 36 26 22 40 43 56 155 196 231 262 270 235 227 212 225 220 224 225 213 159 161 166 162 151 157 162 175 198 192 147 66 356 8 358 9 10 20 319
58 53 53 46 43 35 25 16 11 20 13 356 264 273 284 303 322 280 238 236 225 215 218 199 183 189 175 160 164 169 177 215 197 193 226 207 211 322 331 330 352 318 283
54 48 40 40 43 33 25 15 4 355 349 342 334 319 306 303 296 288 253 238 241 223 214 213 190 171 173 173 170 177 205 246 237 221 228 226 241 258 247 258 280 295 300
59 50 50 54 47 33 26 15 9 13 22 20 22 23 15 9 353 328 303 275 278 9 316 76 141 123 116 137 156 165 144 17 267 211 220 243 256 267 252 293 286 275 292
64 55 57 64 58 47 35 30 29 39 36 34 34 30 33 30 32 68 73 67 53 62 57 54 57 59 48 61 66 60 52 13 8 39 258 294 298 309 270 225 243 270 265
75 70 57 82 70 64 58 53 53 44 36 41 42 40 39 35 41 62 71 93 108 98 89 76 84 58 49 49 54 42 36 7 1 357 355 352 11 18 355 248 222 231 257
89 78 66 61 49 43 58 67 70 72 60 55 52 48 45 43 50 60 67 73 83 91 91 84 78 93 86 78 63 42 6 353 354 352 346 9 10 0 347 330 250 231 232
99 87 78 72 62 59 53 51 48 71 76 65 57 54 47 49 56 63 76 89 96 102 113 128 117 100 107 48 346 330 327 308 298 310 314 353 337 345 360 14 4 325 278
122 109 102 91 83 74 66 59 58 50 53 55 62 70 70 54 43 36 54 72 75 74 83 119 164 230 314 314 325 308 288 288 292 287 288 297 303 348 355 2 345 346 330
143 151 146 134 102 86 72 68 74 64 59 61 64 60 62 41 9 327 338 351 356 352 345 10 16 7 350 321 296 285 263 258 295 315 324 326 323 331 325 325 329 335 339
142 98 115 152 152 131 103 82 62 70 63 76 74 86 67 70 66 65 57 53 52 25 50 30 30 17 59 28 18 16 18 26 16 313 294 293 311 308 304 317 324 315 341
97 103 100 96 117 151 145 127 115 88 66 58 69 78 79 74 43 19 6 349 339 29 69 94 95 68 47 36 31 19 352 316 301 290 292 307 310 305 310 317 321 314 307
46 40 124 121 118 122 138 173 180 168 138 110 7 34 60 37 22 9 358 358 26 7 35 50 47 44 52 38 339 310 298 302 294 284 296 301 303 284 298 317 311 322 316
72 56 86 111 107 141 175 197 211 216 161 140 317 321 295 303 300 311 330 6 45 62 52 61 48 26 16 359 339 324 312 314 314 289 290 350 15 5 356 18 24 27 27
95 59 78 93 65 30 45 62 64 78 133 135 85 49 31 28 20 25 205 343 18 63 66 84 10 324 298 301 307 315 326 322 10 76 89 20 12 69 22 356 348 340 332
112 93 63 74 56 47 48 64 55 64 134 132 97 70 37 14 350 125 229 296 177 185 295 223 293 298 301 303 290 287 305 326 258 358 331 299 308 319 293 282 291 293 292
122 107 93 84 71 66 68 72 54 45 53 150 178 236 261 278 283 289 294 329 342 13 12 14 9 7 358 356 347 334 296 305 315 320 311 294 275 276 280 280 274 274 283
137 111 98 78 38 59 31 110 99 55 17 31 353 322 338 358 41 38 59 60 60 45 38 36 21 2 352 351 32 50 52 26 11 16 3 346 327 303 289 277 265 263 260
98 107 100 88 76 68 41 7 152 128 334 358 26 16 57 50 57 61 58 51 47 32 26 20 8 6 52 59 51 47 37 26 15 3 356 339 324 314 308 300 288 275 269
99 106 112 124 111 90 60 37 33 16 337 47 51 68 63 47 54 54 63 43 29 30 21 11 359 98 73 83 56 40 17 7 354 343 330 313 297 292 288 285 283 282 280
88 69 94 71 62 77 66 7 309 309 20 74 82 82 65 45 62 53 39 27 25 15 9 3 1 109 74 57 41 34 13 360 348 337 329 313 305 305 308 306 306 302 296